Location: Gazon
(48.1318°N, 1.2708°W)
Time: 22:56:33
(UTC+00:00)

Resurs 1-3 - Pass Details

Date: 18 September 2020
Orbit: 630 x 632 km, 97.9° (Epoch: 25 October)

Event Time Altitude Azimuth Distance (km) Brightness Sun altitude
Exits shadow 20:01:13 38° 138° (SE) 965 4.1 -18.7°
Maximum altitude 20:02:43 63° 73° (ENE) 707 3.6 -18.9°
Drops below altitude 10° 20:07:05 10° 352° (N) 2,025 6.6 -19.6°
Sets 20:09:18 0° 350° (N) 2,938 7.6 -19.9°
